Location: Newark
(43.6583°N, 1.6617°E)
Time: 09:42:52
(UTC+00:00)

Vanguard 1 Rocket - Pass Details

Date: 22 August 2019
Orbit: 650 x 4226 km, 34.3° (Epoch: 20 October)

Event Time Altitude Azimuth Distance (km) Brightness Sun altitude
Rises 02:49:31 0° 237° (WSW) 2,953 - -21.9°
Reaches altitude 10° 02:51:51 10° 224° (SW) 2,102 - -21.6°
Exits shadow 02:55:24 28° 173° (S) 1,426 8.1 -21.1°
Maximum altitude 02:55:48 28° 164° (SSE) 1,441 8.2 -21.1°
Drops below altitude 10° 03:01:07 10° 107° (ESE) 2,881 10.4 -20.4°
Sets 03:04:57 0° 97° (E) 4,321 11.5 -19.8°
